[Iaude] MPEC H62: 2024 HH1 [a=1.36,e=0.32,i=27.8,H=22.2]
    mpec at cfa.harvard.edu 
    mpec at cfa.harvard.edu
       
    Mon Apr 22 11:20:36 EDT 2024
    
    
  
M.P.E.C. 2024-H62                                Issued 2024 April 22, 15:19 UT
     The Minor Planet Electronic Circulars contain information on unusual
         minor planets, routine data on comets and natural satellites,
         and occasional editorial announcements.  They are published
    on behalf of Division F of the International Astronomical Union by the
          Minor Planet Center, Smithsonian Astrophysical Observatory,
                          Cambridge, MA 02138, U.S.A.
			  
             Prepared using the Tamkin Foundation Computer Network
                              MPC at CFA.HARVARD.EDU
            URL https://www.minorplanetcenter.net/    ISSN 1523-6714
                                    2024 HH1                                    
Observations:
     K24H01H 1C2024 04 12.40759 15 00 55.39 +03 15 55.4          21.1 GVEH062G96
     K24H01H 1C2024 04 12.41277 15 00 54.54 +03 15 45.5          21.3 GVEH062G96
     K24H01H 1C2024 04 12.42312 15 00 52.98 +03 15 25.4          21.0 GVEH062G96
     K24H01H*1C2024 04 20.24800014 35 51.382-01 47 05.57         20.79GVEH062G96
     K24H01H 1C2024 04 20.25314814 35 50.046-01 47 20.62         20.19GVEH062G96
     K24H01H 1C2024 04 20.25830214 35 48.786-01 47 35.30         21.09GVEH062G96
     K24H01H 1C2024 04 20.26346014 35 47.512-01 47 50.64         20.45GVEH062G96
     K24H01H mC2024 04 20.35614914 35 24.480-01 52 15.80         20.49GVEH062I52
     K24H01H mC2024 04 20.35709514 35 24.290-01 52 18.50         21.40GVEH062I52
     K24H01H mC2024 04 20.35804714 35 24.050-01 52 21.20         20.44GVEH062I52
     K24H01H mC2024 04 20.35899214 35 23.790-01 52 25.10               VEH062I52
     K24H01H KC2024 04 21.25336214 31 46.297-02 36 15.91         20.64GVEH062I52
     K24H01H KC2024 04 21.25640314 31 45.516-02 36 25.31         20.35GVEH062I52
     K24H01H KC2024 04 21.25944014 31 44.677-02 36 34.16         21.05GVEH062I52
Observer details:
G96 Mt. Lemmon Survey.  Observers H. Groeller, J. B. Fazekas.  Measurers B.
    Gray, D. Rankin, F. C. Shelly, T. Beuden, V. F. Carvajal, D. Fay, J. B.
    Fazekas, D. C. Fuls, A. R. Gibbs, A. D. Grauer, H. Groeller, J. K. Hogan,
    R. A. Kowalski, S. M. Larson, G. J. Leonard, R. L. Seaman, K. W.
    Wierzchos.  1.5-m reflector + 10K CCD.
I52 Steward Observatory, Mt. Lemmon Station.  Observers D. C. Fuls, R. A.
    Kowalski.  Measurers T. Beuden, V. F. Carvajal, D. Fay, J. B. Fazekas, D.
    C. Fuls, A. R. Gibbs, A. D. Grauer, H. Groeller, J. K. Hogan, R. A.
    Kowalski, S. M. Larson, G. J. Leonard, D. Rankin, R. L. Seaman, F. C.
    Shelly, K. W. Wierzchos.  1.0-m prime focus + CCD.
Orbital elements:
2024 HH1                                                 Earth MOID = 0.1672 AU
Epoch 2024 Mar. 31.0 TT = JDT 2460400.5                 MPC                     
M 284.10529              (2000.0)            P               Q                  
n   0.61846355     Peri.  273.92251     +0.59142263     +0.75479865             
a   1.3643527      Node    37.48732     -0.41934274     +0.58843100             
e   0.3187816      Incl.   27.78786     -0.68874592     +0.28987574             
P   1.59           H   22.28          G   0.15           U   9                  
Residuals in seconds of arc
240412 G96  0.2+  0.2+    240420 G96  0.0   0.1+    240420 I52  0.2-  0.9-
240412 G96  0.2-  0.2-    240420 G96  0.1-  0.5-    240421 I52  0.1+  0.1+
240412 G96 (1.0+  1.3-)   240420 I52  0.5-  0.3+    240421 I52  0.3+  0.1-
240420 G96  0.8+  0.4+    240420 I52  0.2+  0.3+    240421 I52  0.5-  0.2+
240420 G96  0.2-  0.1+    240420 I52  0.1+  0.3+
Ephemeris:
2024 HH1                 a,e,i = 1.36, 0.32, 28                  q = 0.9294
Date    TT    R. A. (2000) Decl.     Delta      r    Elong.  Phase     V
2024 03 23    15 26 01.4 +09 15 32   0.5707  1.4316   129.9    32.3    23.2
...
2024 04 07    15 12 17.1 +05 37 05   0.4141  1.3631   145.6    24.5    22.2
...
2024 04 15    14 53 52.4 +01 50 35   0.3425  1.3250   156.8    17.3    21.5
...
2024 04 21    14 32 48.6 -02 23 19   0.2971  1.2959   166.8    10.2    20.9
2024 04 22    14 28 35.4 -03 14 06   0.2904  1.2910   168.5     8.9    20.8
2024 04 23    14 24 09.2 -04 07 28   0.2840  1.2861   170.1     7.7    20.6
...
2024 04 29    13 52 46.1 -10 20 37   0.2521  1.2566   171.0     7.2    20.3
...
2024 05 07    12 58 44.9 -20 18 33   0.2302  1.2170   151.9    23.0    20.6
...
2024 05 22    11 04 20.7 -35 58 53   0.2525  1.1434   115.4    53.1    21.5
A. U. Tomatic                (C) Copyright 2024 MPC           M.P.E.C. 2024-H62
    
    
More information about the Iaude
mailing list